EW5961 Weather Reports


time (UTC)temp
C
wind
direction
speed
KPH
gust
KPH
rain 1hr
cm
rain 24hr
cm
rain mn
cm
humidity
%
barometer
mb
20260505224512 37 148 12.9 27.4 0.00 0.00 0.00 44 1007.5
20260505223009 38 160 11.3 29.0 0.00 0.00 0.00 44 1007.5
20260505221508 37 128 11.3 24.1 0.00 0.00 0.00 44 1007.4
20260505220015 38 142 9.7 20.9 0.00 0.00 0.00 44 1007.5
20260505214506 38 122 17.7 25.7 0.00 0.00 0.00 43 1007.6
20260505213005 38 116 8.0 24.1 0.00 0.00 0.00 43 1007.7
20260505211503 38 82 16.1 27.4 0.00 0.00 0.00 44 1007.9
20260505210107 37 103 6.4 24.1 0.00 0.00 0.00 46 1008.0
20260505204604 38 88 16.1 29.0 0.00 0.00 0.00 44 1008.3
20260505203106 38 182 6.4 25.7 0.00 0.00 0.00 44 1008.4
20260505201552 38 117 8.0 20.9 0.00 0.00 0.00 45 1008.8
20260505200058 38 126 6.4 25.7 0.00 0.00 0.00 45 1008.8
20260505194646 37 137 12.9 25.7 0.00 0.00 0.00 47 1009.0
20260505193057 37 133 16.1 22.5 0.00 0.00 0.00 45 1009.3
20260505191543 37 59 3.2 19.3 0.00 0.00 0.00 47 1009.7
20260505190034 37 75 8.0 20.9 0.00 0.00 0.00 47 1009.9
20260505184531 37 78 9.7 30.6 0.00 0.00 0.00 47 1010.1
20260505183033 36 71 14.5 32.2 0.00 0.00 0.00 50 1010.5
20260505181524 36 130 12.9 20.9 0.00 0.00 0.00 49 1010.8
20260505180018 36 119 8.0 32.2 0.00 0.00 0.00 50 1011.1
20260505174515 36 10 14.5 27.4 0.00 0.00 0.00 52 1011.2
20260505173014 35 92 12.9 25.7 0.00 0.00 0.00 52 1011.4
20260505171509 35 109 14.5 22.5 0.00 0.00 0.00 52 1011.4
20260505170005 35 84 11.3 27.4 0.00 0.00 0.00 54 1011.5
20260505164502 34 138 17.7 25.7 0.00 0.00 0.00 55 1011.6
20260505163104 33 207 11.3 25.7 0.00 0.00 0.00 56 1011.8
20260505161607 33 137 8.0 29.0 0.00 0.00 0.00 57 1011.8
20260505153046 32 127 12.9 24.1 0.00 0.00 0.00 62 1012.2
20260505151543 31 123 19.3 29.0 0.00 0.00 0.00 63 1012.3
20260505124510 26 110 11.3 17.7 0.00 0.00 0.00 87 1011.4
20260505123103 25 136 11.3 24.1 0.00 0.00 0.00 87 1011.2
20260505121558 25 121 9.7 19.3 0.00 0.00 0.00 88 1011.2
20260505120057 25 130 8.0 17.7 0.00 0.00 0.00 87 1011.1
20260505114550 25 119 9.7 20.9 0.00 0.00 0.00 87 1010.9
20260505113045 25 136 11.3 17.7 0.00 0.00 0.00 87 1010.9
20260505111543 25 153 12.9 17.7 0.00 0.00 0.00 87 1010.8
20260505101544 25 142 16.1 22.5 0.00 0.00 0.00 86 1010.2
20260505100036 25 109 11.3 20.9 0.00 0.00 0.00 85 1010.4
20260505094534 26 134 14.5 22.5 0.00 0.00 0.00 85 1010.3
20260505093033 26 134 12.9 20.9 0.00 0.00 0.00 84 1010.4
20260505091533 26 101 8.0 19.3 0.00 0.00 0.00 84 1010.6
20260505090039 26 103 12.9 17.7 0.00 0.00 0.00 83 1010.6
20260505084526 26 136 6.4 16.1 0.00 0.00 0.00 83 1010.7
20260505083122 26 22 9.7 19.3 0.00 0.00 0.00 83 1010.7
20260505081522 26 138 8.0 20.9 0.00 0.00 0.00 83 1010.9
20260505080037 26 60 8.0 20.9 0.00 0.00 0.00 82 1010.7
20260505074518 26 76 9.7 17.7 0.00 0.00 0.00 82 1010.7
20260505073026 26 12 11.3 27.4 0.00 0.00 0.00 81 1010.9
20260505071512 26 101 8.0 17.7 0.00 0.00 0.00 80 1011.0
20260505070010 26 121 9.7 22.5 0.00 0.00 0.00 80 1011.0
20260505064508 26 113 14.5 22.5 0.00 0.00 0.00 80 1011.3
20260505063005 26 84 9.7 20.9 0.00 0.00 0.00 80 1011.5
20260505061502 26 117 4.8 16.1 0.00 0.00 0.00 81 1011.6
20260505054559 26 132 3.2 16.1 0.00 0.00 0.00 81 1011.8
20260505053057 26 119 14.5 19.3 0.00 0.00 0.00 81 1012.1
20260505051557 26 119 11.3 16.1 0.00 0.00 0.00 80 1012.1
20260505041555 28 99 4.8 17.7 0.00 0.00 0.00 79 1012.5
20260505034554 28 163 9.7 19.3 0.00 0.00 0.00 79 1012.7
20260505033056 28 92 9.7 19.3 0.00 0.00 0.00 79 1012.6
20260505031559 28 120 4.8 20.9 0.00 0.00 0.00 79 1012.6
20260505030058 28 140 9.7 16.1 0.00 0.00 0.00 79 1012.3
20260505024554 28 111 9.7 22.5 0.00 0.00 0.00 79 1012.0
20260505023052 28 130 6.4 20.9 0.00 0.00 0.00 78 1011.8
20260505020052 28 71 19.3 30.6 0.00 0.00 0.00 77 1011.6
20260505014603 28 65 22.5 29.0 0.00 0.00 0.00 76 1011.3
20260505013050 28 19 20.9 32.2 0.00 0.00 0.00 76 1010.8
20260505011552 28 48 25.7 40.2 0.00 0.00 0.00 75 1010.5
20260505010049 29 40 20.9 29.0 0.00 0.00 0.00 74 1010.1
20260505004554 29 58 27.4 35.4 0.00 0.00 0.00 74 1009.8
20260505003047 29 12 20.9 35.4 0.00 0.00 0.00 73 1009.7
20260505001547 30 24 33.8 41.8 0.00 0.00 0.00 72 1009.7
20260505000052 30 12 20.9 32.2 0.00 0.00 0.00 71 1009.8
20260504234544 31 27 22.5 32.2 0.00 0.00 0.00 70 1009.7
20260504233044 31 5 16.1 29.0 0.00 0.00 0.00 69 1009.4
20260504231543 31 16 19.3 35.4 0.00 0.00 0.00 67 1009.4
20260504230046 32 338 20.9 33.8 0.00 0.00 0.00 67 1009.6